Regional Weather Roundup
Issued by NWS Upton, NY

Current Version | Previous Version | Text Only | Print | Product List | Glossary On
Versions: 1 2 3 4 5 6 7 8 9 10 11 12 13 14 15 16 17 18 19 20 21 22 23 24 25 26 27
000 ASUS41 KOKX 300304 RWROKX REGIONAL WEATHER ROUNDUP NATIONAL WEATHER SERVICE NEW YORK NY 1100 PM EDT FRI APR 29 2016 NOTE: "FAIR" INDICATES FEW OR NO CLOUDS BELOW 12,000 FEET WITH NO SIGNIFICANT WEATHER AND/OR OBSTRUCTIONS TO VISIBILITY. NYZ071-072-176-178-NJZ106-104-300400- NEW YORK CITY METRO AREA CITY SKY/WX TMP DP RH WIND PRES REMARKS CENTRAL PARK LGT RAIN 46 40 79 E6 30.16F LAGUARDIA APRT LGT RAIN 48 40 73 E9 30.14F KENNEDY INTL LGT RAIN 47 41 80 N10 30.17R NEWARK/LIBERTY LGT RAIN 48 39 71 NE5 30.15S BRNX BOT. GARD N/A 45 41 87 NE1 30.16F TETERBORO LGT RAIN 48 41 76 CALM 30.13F $$ NYZ177-179-078>081-300400- LONG ISLAND NEW YORK CITY SKY/WX TMP DP RH WIND PRES REMARKS FARMINGDALE CLOUDY 46 39 76 NE5 30.16R ISLIP CLOUDY 46 39 76 NE5 30.15S SHIRLEY CLOUDY 45 41 86 CALM 30.17S RIVERHEAD N/A 45 39 81 CALM 30.17S WESTHAMPTON LGT RAIN 44 41 89 NE8 30.18R EAST HAMPTON CLOUDY 46 37 71 E3 30.17R MONTAUK POINT N/A 47 36 65 VRB3 30.18R $$ NYZ052-065-067-300400- HUDSON VALLEY CITY SKY/WX TMP DP RH WIND PRES REMARKS WHITE PLAINS LGT RAIN 45 41 86 E6 30.14F NEWBURGH LGT RAIN 45 41 87 CALM 30.16S FOG MONTGOMERY LGT RAIN 45 42 89 CALM 30.14F POUGHKEEPSIE LGT RAIN 47 42 83 SE3 30.15S ALBANY CLOUDY 52 40 63 W5 30.11S $$ NJZ001-105-106-008-010-013-015-019>022-104-300400- NEW JERSEY CITY SKY/WX TMP DP RH WIND PRES REMARKS NEWARK/LIBERTY LGT RAIN 48 39 71 NE5 30.15S TETERBORO LGT RAIN 48 41 76 CALM 30.13F CALDWELL LGT RAIN 46 42 86 CALM 30.16S MORRISTOWN RAIN 45 43 93 CALM 30.16S SOMERVILLE CLOUDY 46 40 79 NE5 30.14S SUSSEX CLOUDY 44 40 85 CALM 30.15F ANDOVER N/A 44 41 89 CALM 30.14F TRENTON CLOUDY 45 38 76 E8 30.13S HAZE MILLVILLE CLOUDY 48 43 82 NE7 30.11R ATLANTIC CITY CLOUDY 48 44 86 N5 30.11R WRIGHTSTOWN CLOUDY 46 44 93 N8 30.11R TOMS RIVER CLOUDY 46 43 87 N6 30.13S BELMAR CLOUDY 47 43 86 NE5 30.15R $$ PAZ047>061-062-071-300400- EASTERN PENNSYLVANIA CITY SKY/WX TMP DP RH WIND PRES REMARKS PHILADELPHIA CLOUDY 49 39 68 NE8 30.13S ALLENTOWN CLOUDY 45 38 76 E6 30.15S SCRANTON CLOUDY 44 42 93 CALM 30.14R $$ CTZ002-004>006-009-010-012-RIZ004-006-007-MAZ004-011-015-300400- SOUTHERN NEW ENGLAND IN CT CITY SKY/WX TMP DP RH WIND PRES REMARKS BRADLEY INTL CLOUDY 49 27 42 S10 30.15R HARTFORD CLOUDY 50 33 52 S5 30.17R DANBURY LGT RAIN 44 39 82 SE3 30.16S WTRBRY/OXFORD N/A 45 34 65 CALM 30.16F BRIDGEPORT LGT RAIN 46 38 73 SW5 30.17S MERIDEN CLOUDY 48 34 58 CALM 30.16S NEW HAVEN CLOUDY 47 38 71 E5 30.17S CHESTER FAIR 45 37 76 S5 30.16S GROTON CLOUDY 47 38 71 E7 30.17R WILLIMANTIC CLOUDY 49 28 44 S5 30.16R IN RI CITY SKY/WX TMP DP RH WIND PRES REMARKS PROVIDENCE CLOUDY 45 34 65 SE3 30.16S BLOCK ISLAND CLOUDY 45 35 68 E10 30.15S WESTERLY CLOUDY 47 30 51 SE5 30.17R IN MA CITY SKY/WX TMP DP RH WIND PRES REMARKS BOSTON PTCLDY 45 30 55 S9 30.16S WORCESTER CLOUDY 45 32 60 S9 30.13R WESTFIELD CLOUDY 50 30 46 S14 30.13R PROVINCETOWN PTCLDY 42 34 73 S6 30.16R NANTUCKET CLOUDY 44 34 67 E9 30.14S $$ ANZ330-335-338-340-345-350-353-355-300400- COASTAL MARINE OBSERVATIONS STATION/POSITION TIME SKY/WX TEMP WIND PRES VSBY WAVE AIR SEA DIR/SP/G HT/PER (UTC) (F) (DEG/KT/KT) (MB) (MI) (FT/S) NY HARB ENTRANCE 0150 48 51 80/ 12/ 14 1019.9 6/ 7 20S FIRE ISLAND 0150 47 48 60/ 14/ 16 1019.6 6/ 7 GREAT SOUTH BAY 0230 48 57 70/ 12/ 14 N/A 23 SSW MONTAUK P 0150 46 47 90/ 14/ 17 1019.6 6/ 7 15 E BARNEGAT LI 0222 51 N/A 7/ 8 HUDSON CANYON 0150 49 50 1018.0 6/ 8 KINGS POINT 0200 47 53 1021.2 EXECUTION ROCKS NOT AVBL CENTRAL LI SOUND 0200 47 80/ 8/ 10 N/A 1/ 4 EASTERN LI SOUND 0200 47 48 90/ 12/ 17 N/A ROBBINS REEF 0200 48 1020.2 $$ >>>>>>>>>>>>>>>>>>>>>>>>>>>> KEY <<<<<<<<<<<<<<<<<<<<<<<<<<< > < > SKY/WX - SKY CONDITION/PRESENT WEATHER < > TMP - TEMPERATURE IN FAHRENHEIT < > DP - DEWPOINT IN FAHRENHEIT < > RH - RELATIVE HUMIDITY IN PERCENT < > WIND - DIRECTION AND SPEED IN MPH < > PRES - MEAN SEA LEVEL PRESSURE IN INCHES OF HG < > WCI - WIND CHILL INDEX < > VSB - VISIBILITY IN MILES < > HX - HEAT INDEX < > TC - TEMPERATURE IN CELSIUS < > VRB - VARIABLE WIND DIRECTION < > < >>>>>>>>>>>>>>>>>>>>>>>>>>>> KEY <<<<<<<<<<<<<<<<<<<<<<<<<<<

USA.gov is the U.S. government's official web portal to all federal, state and local government web resources and services.